Location: Newark
(47.5500°N, 8.6167°E)
Time: 03:22:38
(UTC+00:00)

N. Korean satellite - Visible Passes

Search period start: 28 January 2020 00:00
Search period end: 07 February 2020 00:00
Orbit: 454 x 507 km, 97.2° (Epoch: 27 January)

Date Brightness Start Highest point End Pass type
(mag) Time Alt. Az. Time Alt. Az. Time Alt. Az.
28 Jan 9.3 04:28:00 10° NE 04:30:43 20° E 04:33:26 10° SE visible
28 Jan 7.3 06:00:57 10° N 06:04:10 32° WNW 06:07:25 10° SW visible
29 Jan 10.2 04:04:16 10° ENE 04:04:58 10° E 04:05:42 10° E visible
29 Jan 6.5 05:35:11 10° N 05:38:45 63° WNW 05:42:21 10° SSW visible
30 Jan 7.1 05:09:40 10° NNE 05:13:16 62° ESE 05:16:53 10° S visible
30 Jan 9.8 17:22:55 10° SW 17:25:05 16° W 17:27:17 10° NW visible
31 Jan 8.6 04:44:26 10° NNE 04:47:41 30° E 04:50:57 10° SSE visible
31 Jan 7.8 06:18:07 10° NNW 06:20:55 21° WNW 06:23:44 10° WSW visible
31 Jan 8.8 16:56:20 10° SSW 16:59:24 30° W 17:02:31 10° NNW visible
01 Feb 9.7 04:19:38 10° NE 04:22:00 16° E 04:24:24 10° SE visible
01 Feb 7.0 05:52:09 10° N 05:55:34 39° WNW 05:58:59 10° SW visible
02 Feb 6.5 05:26:28 10° N 05:30:07 81° WNW 05:33:48 10° SSW visible
02 Feb 10.4 17:41:43 10° W 17:42:05 10° W 17:42:28 10° W visible
03 Feb 7.6 05:01:02 10° NNE 05:04:35 49° E 05:08:10 10° S visible
03 Feb 9.6 17:13:45 10° SW 17:16:20 20° W 17:18:58 10° NW visible
04 Feb 9.0 04:35:54 10° NE 04:38:58 25° E 04:42:04 10° SSE visible
04 Feb 7.6 06:09:14 10° N 06:12:19 26° WNW 06:15:25 10° SW visible
05 Feb 10.0 04:11:23 10° ENE 04:13:16 13° E 04:15:10 10° ESE visible
05 Feb 6.8 05:43:22 10° N 05:46:56 50° WNW 05:50:30 10° SSW visible
06 Feb 6.7 05:17:46 10° NNE 05:21:27 80° ESE 05:25:09 10° S visible
06 Feb 10.0 17:31:38 10° WSW 17:33:18 13° W 17:34:59 10° WNW visible
